STARLINK-35747 (66207 NORAD) Tracking and Keplerian Element Data

This shows tracking and keplerian element data for the satellite.

Feedback or suggestion? Click here.




ElementValue
Catalog66207
NameSTARLINK-35747
Epoch Orbit946
Epoch Day354.06935292
Epoch Year2025
RAAN240.0912
Inclination53.1586
Eccentricity0.0001307
Argument of Perigee84.8072
Mean Anonmoly275.3078
Mean Motion15.30207772
Decay Rate0.0001539
L11 66207U 25244B 25354.06935292 .00015390 00000+0 53053-3 0 9999
L22 66207 53.1586 240.0912 0001307 84.8072 275.3078 15.30207772 9464



Live tracking and technical data element details for STARLINK-35747 (NORAD 66207). STARLINK-35747 can be tracked NOW for your location showing map with azimuth and elevation plus other details from your city location.







IsCatalogInMostPopularTable: catalog: 66207, numindb: 3
Update: records affected: 1



GetName: 66207 STARLINK-35747

Hit Count: updated at: Mon, 09 Feb 2026 08:09:55 GMT